Dewpoint
3 5 6 5 6 9 6 5 7 9 10 11 13 13 16 20 22 24 26 31 32 34 36 38 40 43 45 46 47 48 49 50 50 51 51 51 52 52 52 53 54 55
1 4 5 5 7 7 5 5 6 7 7 9 11 12 14 17 19 21 24 28 31 32 34 35 36 38 40 42 45 47 48 49 49 50 50 50 51 52 52 52 53 54
-0 0 0 1 2 3 4 3 5 5 6 7 8 10 15 15 16 18 22 27 29 31 32 34 35 36 38 39 41 43 45 47 48 49 49 49 50 51 51 52 52 52
-2 -1 -1 -0 2 3 3 2 3 5 5 7 6 8 11 14 13 15 19 23 26 29 31 32 33 35 36 37 39 41 42 43 45 47 48 49 49 50 51 51 51 51
-3 -1 -1 -1 0 1 2 1 1 3 3 5 5 7 8 8 10 13 15 18 22 25 29 31 32 33 35 36 38 39 40 41 43 44 44 45 47 49 50 50 50 49
-5 -3 -3 -1 -2 -1 -0 -1 1 2 1 3 4 5 6 7 9 11 14 14 18 22 25 27 30 32 33 35 37 38 39 40 41 42 43 43 44 46 47 49 49 48
-6 -5 -6 -3 -5 -2 -2 -2 -2 1 -1 3 3 3 4 6 8 9 11 13 15 18 22 24 27 29 31 33 35 37 37 38 39 40 41 42 43 43 44 46 47 47
-8 -7 -6 -6 -6 -4 -3 -3 -2 -2 -1 0 -1 1 3 5 6 8 10 11 12 15 17 21 25 26 29 31 34 36 35 37 38 38 40 40 41 42 42 43 44 44
-9 -9 -8 -8 -8 -6 -6 -5 -3 -3 -1 -1 -1 -0 2 3 4 6 8 9 10 12 14 17 22 25 26 29 33 35 33 34 36 36 38 39 40 40 41 42 42 42
-12 -11 -12 -11 -10 -8 -8 -7 -5 -4 -2 -2 -2 -1 -0 1 3 3 5 6 9 10 12 15 18 21 24 26 32 33 32 33 34 35 36 38 39 39 40 41 41 41
-15 -14 -14 -13 -11 -10 -10 -8 -7 -6 -5 -5 -3 -2 -1 -1 1 2 3 4 8 8 11 12 14 17 22 25 30 32 30 31 32 33 34 36 38 39 39 40 40 40
-16 -16 -16 -14 -12 -12 -12 -10 -9 -8 -8 -7 -5 -4 -3 -1 -0 -0 2 3 4 6 9 11 11 14 20 24 28 26 26 29 31 32 33 35 36 38 38 39 39 39
-18 -17 -16 -15 -15 -14 -13 -12 -11 -11 -10 -9 -7 -6 -5 -3 -3 -2 1 3 3 5 7 8 10 14 18 24 26 25 25 25 28 30 32 33 35 36 38 38 39 39
-18 -18 -17 -17 -16 -15 -14 -14 -13 -13 -12 -10 -9 -8 -7 -5 -5 -3 -1 0 2 4 5 7 9 12 16 21 22 24 25 25 24 27 30 31 33 35 36 37 38 38
-18 -17 -17 -17 -17 -17 -16 -15 -14 -14 -12 -11 -11 -10 -6 -8 -6 -4 -4 -2 0 2 3 6 10 13 16 16 18 20 23 24 24 24 25 29 32 34 35 36 37 37
-18 -17 -18 -18 -18 -17 -17 -17 -17 -15 -14 -14 -12 -11 -11 -9 -7 -6 -6 -3 -2 -2 1 6 8 10 14 19 21 19 20 23 24 24 24 26 30 33 34 35 36 36
-18 -18 -18 -18 -18 -18 -18 -17 -16 -15 -15 -15 -14 -13 -12 -10 -9 -9 -7 -6 -5 -3 -1 4 6 7 15 19 21 23 21 21 23 24 24 25 27 31 33 34 35 35
-18 -18 -18 -18 -18 -18 -18 -17 -16 -16 -16 -15 -15 -14 -13 -12 -12 -10 -9 -8 -5 -4 -2 0 3 10 15 18 20 22 23 21 21 24 25 24 25 28 32 33 33 34
-18 -18 -18 -18 -18 -18 -17 -16 -16 -16 -16 -16 -15 -14 -14 -14 -13 -12 -11 -9 -7 -6 -4 -2 -1 9 14 17 20 21 23 22 20 20 21 22 23 26 30 32 32 33
-18 -18 -18 -18 -18 -18 -17 -16 -16 -16 -16 -16 -15 -14 -14 -14 -14 -13 -12 -10 -8 -6 -5 -4 -3 7 14 17 19 20 22 22 18 18 18 20 22 23 27 30 32 32
-18 -18 -18 -18 -18 -17 -17 -17 -17 -16 -16 -16 -15 -15 -15 -14 -13 -13 -12 -9 -9 -8 -7 -5 -3 10 14 16 17 19 21 21 17 17 17 18 20 23 25 29 30 31
-18 -18 -18 -18 -18 -17 -17 -17 -17 -17 -16 -16 -13 -15 -14 -13 -13 -12 -12 -11 -10 -10 -8 -7 -5 9 12 14 17 18 20 17 16 16 16 17 19 21 23 26 30 31
-18 -18 -18 -18 -17 -17 -17 -17 -17 -17 -16 -15 -15 -14 -14 -13 -13 -13 -12 -12 -11 -9 -9 -8 -7 2 11 14 16 18 17 14 14 15 15 16 18 21 23 25 28 29
-18 -18 -18 -17 -17 -17 -17 -17 -17 -16 -16 -15 -14 -14 -14 -14 -14 -13 -12 -11 -11 -11 -10 -8 -7 1 10 13 15 16 17 12 13 14 14 14 16 19 22 24 26 29
-17 -17 -17 -17 -17 -17 -17 -17 -17 -16 -15 -14 -14 -15 -15 -14 -12 -13 -12 -12 -12 -11 -4 -6 -7 -3 8 11 14 16 16 12 13 13 13 14 14 16 19 21 23 27
-17 -17 -16 -16 -16 -16 -16 -16 -15 -13 -15 -15 -15 -14 -14 -14 -13 -12 -13 -12 -11 -11 -9 -8 -8 -7 -1 11 14 16 18 14 14 14 14 14 14 16 18 19 21 24